Brookings, OR

6:31 PM PDT on September 25, 2017 (GMT -0700)
Brookings State

Weather History for KBOK - May, 2013

Change the Weather History Date:

Sunday, May 12, 2013

  Actual Average Record
Temperature  
Mean Temperature 58 °F -  
Max Temperature 63 °F 63 °F 91 °F (1939)
Min Temperature 52 °F 45 °F 39 °F (1967)
Degree Days  
Heating Degree Days 8    
Growing Degree Days 8 (Base 50)    
Moisture  
Dew Point 54 °F    
Average Humidity 92    
Maximum Humidity 100    
Minimum Humidity 75    
Precipitation  
Precipitation 0.00 in - - ()
Sea Level Pressure  
Sea Level Pressure 30.18 in    
Wind  
Wind Speed 3 mph (South)    
Max Wind Speed 8 mph    
Max Gust Speed -    
Visibility 7 miles    
Events Fog    
Averages and records for this station are not official NWS values.
T = Trace of Precipitation, MM = Missing Value Source: NWS Daily Summary

Daily Weather History Graph

Daily Weather History Graph

Search for Another Location

Airport or City:

Trip Planner

Search our weather history database for the weather conditions in past years. The results will help you decide how hot, cold, wet, or windy it might be!

Date:

Astronomy

May. 12, 2013 Rise Set
Actual Time 5:59 AM PDT 8:28 PM PDT
Civil Twilight 5:27 AM PDT 9:00 PM PDT
Nautical Twilight 4:48 AM PDT 9:39 PM PDT
Astronomical Twilight 4:04 AM PDT 10:24 PM PDT
Moon 7:58 AM PDT (5/12) 11:00 PM PDT (5/12)
Length of Visible Light 15h 32m
Length of Day
14h 29m
Waxing Crescent, 7% of the Moon is Illuminated
May 12
Waxing Crescent
May 17
First Quarter
May 24
Full
May 31
Last Quarter
Jun 8
New

Hourly Weather History & Observations

Time (PDT) Temp. Dew Point Humidity Pressure Visibility Wind Dir Wind Speed Gust Speed Precip Events Conditions
12:56 AM 55.9 °F 52.9 °F 89% 30.16 in 10.0 mi SSE 5.8 mph - N/A   Overcast
1:14 AM 55.4 °F 53.6 °F 94% 30.15 in 10.0 mi Variable 5.8 mph - N/A   Scattered Clouds
1:56 AM 54.9 °F 52.0 °F 90% 30.14 in 10.0 mi Variable 3.5 mph - N/A   Clear
2:56 AM 52.9 °F 52.0 °F 97% 30.16 in 10.0 mi Calm Calm - N/A   Clear
3:18 AM 53.6 °F 53.6 °F 100% 30.16 in 7.0 mi North 3.5 mph - N/A   Scattered Clouds
3:24 AM 53.6 °F 53.6 °F 100% 30.16 in 7.0 mi North 3.5 mph - N/A   Mostly Cloudy
3:39 AM 53.6 °F 53.6 °F 100% 30.16 in 7.0 mi Calm Calm - N/A   Overcast
3:56 AM 52.9 °F 52.0 °F 97% 30.16 in 8.0 mi Calm Calm - N/A   Mostly Cloudy
4:03 AM 53.6 °F 51.8 °F 94% 30.15 in 9.0 mi Calm Calm - N/A   Scattered Clouds
4:56 AM 52.0 °F 50.9 °F 96% 30.16 in 10.0 mi ENE 3.5 mph - N/A   Partly Cloudy
5:56 AM 52.0 °F 50.9 °F 96% 30.16 in 10.0 mi SW 3.5 mph - N/A   Mostly Cloudy
6:08 AM 53.6 °F 51.8 °F 94% 30.16 in 10.0 mi North 3.5 mph - N/A   Overcast
6:16 AM 53.6 °F 51.8 °F 94% 30.16 in 10.0 mi Calm Calm - N/A   Overcast
6:29 AM 53.6 °F 51.8 °F 94% 30.16 in 10.0 mi NE 3.5 mph - N/A   Overcast
6:56 AM 54.0 °F 52.9 °F 96% 30.18 in 10.0 mi Calm Calm - N/A   Overcast
7:19 AM 53.6 °F 53.6 °F 100% 30.18 in 2.5 mi Calm Calm - N/A   Overcast
7:35 AM 53.6 °F 53.6 °F 100% 30.19 in 1.2 mi Calm Calm - N/A   Overcast
7:41 AM 53.6 °F 53.6 °F 100% 30.19 in 0.8 mi Calm Calm - N/A   Overcast
7:56 AM 54.0 °F 52.9 °F 96% 30.20 in 0.5 mi Calm Calm - N/A Fog Fog
8:16 AM 53.6 °F 53.6 °F 100% 30.19 in 0.8 mi Calm Calm - N/A   Overcast
8:31 AM 55.4 °F 55.4 °F 100% 30.19 in 1.0 mi SE 3.5 mph - N/A   Overcast
8:39 AM 55.4 °F 55.4 °F 100% 30.19 in 1.2 mi SE 4.6 mph - N/A   Overcast
8:47 AM 55.4 °F 55.4 °F 100% 30.19 in 1.8 mi SSE 5.8 mph - N/A   Overcast
8:56 AM 55.9 °F 54.9 °F 96% 30.20 in 4.0 mi South 4.6 mph - N/A   Overcast
9:56 AM 56.8 °F 55.9 °F 97% 30.20 in 2.5 mi SSE 8.1 mph - N/A   Overcast
10:07 AM 57.2 °F 55.4 °F 94% 30.19 in 4.0 mi South 6.9 mph - N/A   Overcast
10:56 AM 55.9 °F 54.0 °F 93% 30.22 in 5.0 mi Variable 3.5 mph - N/A   Overcast
11:18 AM 55.4 °F 53.6 °F 94% 30.22 in 4.0 mi Variable 3.5 mph - N/A   Overcast
11:33 AM 57.2 °F 55.4 °F 94% 30.22 in 2.5 mi West 4.6 mph - N/A   Overcast
11:56 AM 56.8 °F 54.9 °F 93% 30.22 in 2.5 mi SW 3.5 mph - N/A   Overcast
12:03 PM 57.2 °F 55.4 °F 94% 30.22 in 4.0 mi Calm Calm - N/A   Overcast
12:21 PM 57.2 °F 55.4 °F 94% 30.22 in 6.0 mi Calm Calm - N/A   Overcast
12:56 PM 61.0 °F 54.9 °F 80% 30.22 in 10.0 mi South 5.8 mph - N/A   Mostly Cloudy
1:06 PM 60.8 °F 55.4 °F 82% 30.21 in 10.0 mi SSE 6.9 mph - N/A   Scattered Clouds
1:56 PM 63.0 °F 54.9 °F 75% 30.22 in 10.0 mi WSW 5.8 mph - N/A   Clear
2:56 PM 61.9 °F 54.0 °F 75% 30.21 in 10.0 mi SW 5.8 mph - N/A   Partly Cloudy
3:15 PM 60.8 °F 53.6 °F 77% 30.21 in 10.0 mi Variable 4.6 mph - N/A   Mostly Cloudy
3:56 PM 61.9 °F 54.9 °F 78% 30.20 in 10.0 mi SSW 6.9 mph - N/A   Overcast
4:56 PM 61.9 °F 54.0 °F 75% 30.19 in 10.0 mi Variable 6.9 mph - N/A   Overcast
5:56 PM 59.9 °F 54.0 °F 81% 30.17 in 10.0 mi Variable 4.6 mph - N/A   Overcast
6:22 PM 60.8 °F 53.6 °F 77% 30.15 in 10.0 mi South 6.9 mph - N/A   Scattered Clouds
6:56 PM 61.0 °F 54.0 °F 78% 30.14 in 10.0 mi Variable 4.6 mph - N/A   Clear
7:56 PM 55.9 °F 52.9 °F 89% 30.15 in 10.0 mi NW 3.5 mph - N/A   Mostly Cloudy
8:05 PM 55.4 °F 53.6 °F 94% 30.14 in 10.0 mi Calm Calm - N/A   Scattered Clouds
8:33 PM 55.4 °F 53.6 °F 94% 30.14 in 10.0 mi Calm Calm - N/A   Mostly Cloudy
8:56 PM 55.9 °F 52.9 °F 89% 30.15 in 10.0 mi Calm Calm - N/A   Overcast
9:56 PM 54.9 °F 52.9 °F 93% 30.17 in 10.0 mi Calm Calm - N/A   Overcast
10:27 PM 55.4 °F 53.6 °F 94% 30.16 in 10.0 mi Calm Calm - N/A   Mostly Cloudy
10:56 PM 54.9 °F 52.9 °F 93% 30.17 in 10.0 mi SSE 3.5 mph - N/A   Mostly Cloudy
11:56 PM 54.9 °F 52.9 °F 93% 30.15 in 10.0 mi South 5.8 mph - N/A   Overcast